Custer, SD

11:30 AM MDT on July 27, 2017 (GMT -0600)
Custer County

Weather History for KCUT - June, 2013

Change the Weather History Date:

Monday, June 24, 2013

  Actual Average Record
Temperature  
Mean Temperature 67 °F 62 °F  
Max Temperature 84 °F 74 °F 96 °F (1988)
Min Temperature 50 °F 49 °F 32 °F (1960)
Degree Days  
Heating Degree Days 0 5  
Month to date heating degree days 185 197  
Since 1 June heating degree days 185 197  
Since 1 July heating degree days 8265 8366  
Cooling Degree Days 2 1  
Month to date cooling degree days 3 12  
Year to date cooling degree days 5 13  
Since 1 June cooling degree days 3 12  
Growing Degree Days 16 (Base 50)    
Moisture  
Dew Point 45 °F    
Average Humidity 57    
Maximum Humidity 96    
Minimum Humidity 17    
Precipitation  
Precipitation T in 0.10 in 0.98 in (1968)
Month to date precipitation 1.65 2.63  
Year to date precipitation 8.18 9.74  
Sea Level Pressure  
Sea Level Pressure 29.67 in    
Wind  
Wind Speed 5 mph (SSE)    
Max Wind Speed 18 mph    
Max Gust Speed 31 mph    
Visibility 10 miles    
Events      
T = Trace of Precipitation, MM = Missing Value Source: NWS Daily Summary

Daily Weather History Graph

Daily Weather History Graph

Search for Another Location

Airport or City:

Trip Planner

Search our weather history database for the weather conditions in past years. The results will help you decide how hot, cold, wet, or windy it might be!

Date:

Astronomy

Jun. 24, 2013 Rise Set
Actual Time 5:13 AM MDT 8:40 PM MDT
Civil Twilight 4:37 AM MDT 9:16 PM MDT
Nautical Twilight 3:50 AM MDT 10:03 PM MDT
Astronomical Twilight 2:50 AM MDT 11:03 PM MDT
Moon 9:39 PM MDT (6/24) 6:47 AM MDT (6/24)
Length of Visible Light 16h 38m
Length of Day
15h 26m
Full, 97% of the Moon is Illuminated
Jun 24
Full
Jun 29
Last Quarter
Jul 8
New
Jul 15
First Quarter
Jul 22
Full

Hourly Weather History & Observations

Time (MDT) Temp. Dew Point Humidity Pressure Visibility Wind Dir Wind Speed Gust Speed Precip Events Conditions
12:53 AM 60.1 °F 52.0 °F 75% 29.77 in 10.0 mi ESE 3.5 mph - N/A   Clear
1:53 AM 57.9 °F 53.1 °F 84% 29.74 in 10.0 mi East 3.5 mph - N/A   Clear
2:53 AM 54.0 °F 51.1 °F 90% 29.73 in 10.0 mi Calm Calm - N/A   Clear
3:53 AM 51.1 °F 48.9 °F 92% 29.73 in 10.0 mi Calm Calm - N/A   Clear
4:53 AM 52.0 °F 50.0 °F 93% 29.71 in 10.0 mi Calm Calm - N/A   Clear
5:53 AM 51.1 °F 48.9 °F 92% 29.70 in 9.0 mi Calm Calm - N/A   Clear
6:53 AM 55.0 °F 51.1 °F 86% 29.69 in 10.0 mi Calm Calm - N/A   Clear
7:53 AM 62.1 °F 52.0 °F 70% 29.66 in 10.0 mi WSW 3.5 mph - N/A   Clear
8:53 AM 68.0 °F 46.9 °F 47% 29.66 in 10.0 mi SW 8.1 mph - N/A   Clear
9:53 AM 73.0 °F 48.9 °F 42% 29.64 in 10.0 mi West 8.1 mph - N/A   Clear
10:53 AM 79.0 °F 41.0 °F 26% 29.62 in 10.0 mi Calm Calm - N/A   Clear
11:53 AM 82.0 °F 34.0 °F 18% 29.62 in 10.0 mi SW 11.5 mph 17.3 mph N/A   Clear
12:53 PM 78.1 °F 53.1 °F 42% 29.63 in 10.0 mi ESE 10.4 mph 24.2 mph N/A   Scattered Clouds
1:53 PM 80.1 °F 50.0 °F 35% 29.61 in 10.0 mi SE 9.2 mph 19.6 mph N/A   Clear
2:53 PM 80.1 °F 46.9 °F 31% 29.61 in 10.0 mi ESE 11.5 mph 19.6 mph N/A   Clear
3:53 PM 73.0 °F 54.0 °F 51% 29.66 in 10.0 mi ESE 10.4 mph - N/A   Clear
4:53 PM 71.1 °F 36.0 °F 28% 29.67 in 10.0 mi South 6.9 mph 17.3 mph N/A   Clear
5:53 PM 71.1 °F 35.1 °F 27% 29.72 in 10.0 mi WSW 15.0 mph 23.0 mph 0.00 in   Mostly Cloudy
6:53 PM 70.0 °F 39.9 °F 33% 29.65 in 10.0 mi East 3.5 mph - 0.00 in   Clear
7:53 PM 68.0 °F 37.9 °F 33% 29.65 in 10.0 mi ESE 9.2 mph 17.3 mph N/A   Clear
8:53 PM 68.0 °F 36.0 °F 31% 29.64 in 10.0 mi Variable 5.8 mph - N/A   Clear
9:53 PM 66.0 °F 37.9 °F 36% 29.67 in 10.0 mi Variable 5.8 mph - N/A   Clear
10:53 PM 64.9 °F 39.9 °F 40% 29.65 in 10.0 mi Calm Calm - N/A   Clear
11:53 PM 63.0 °F 37.9 °F 40% 29.63 in 10.0 mi WSW 3.5 mph - N/A   Clear